GW1144 Weather Reports


Display with metric or nautical units.
time (UTC)temp
F
wind
direction
speed
MPH
gust
MPH
rain 1hr
in
rain 24hr
in
rain mn
in
humidity
%
barometer
mb
20260502183058 63 199 7.0 15.0 0.00 0.00 0.00 35 1013.7
20260502181552 63 194 7.0 18.0 0.00 0.00 0.00 35 1014.2
20260502163104 58 221 6.0 14.0 0.00 0.00 0.00 38 1015.8
20260502161556 57 211 6.0 12.0 0.00 0.00 0.00 40 1016.0
20260502160104 56 206 5.0 15.0 0.00 0.00 0.00 40 1016.3
20260502151603 54 197 4.0 13.0 0.00 0.00 0.00 45 1017.1
20260502123053 37 0 0.0 2.0 0.00 0.00 0.00 73 1018.1
20260502121554 34 0 0.0 1.0 0.00 0.00 0.00 77 1018.1
20260502120110 32 0 0.0 1.0 0.00 0.00 0.00 81 1018.2
20260502114557 31 0 0.0 0.0 0.00 0.00 0.00 82 1018.2
20260502113053 30 0 0.0 0.0 0.00 0.00 0.00 82 1018.1
20260502111553 31 0 0.0 0.0 0.00 0.00 0.00 81 1018.1
20260502110057 31 0 0.0 0.0 0.00 0.00 0.00 79 1018.1
20260502104555 31 0 0.0 0.0 0.00 0.00 0.00 79 1018.1
20260502103051 31 0 0.0 0.0 0.00 0.00 0.00 80 1018.2
20260502101556 30 0 0.0 0.0 0.00 0.00 0.00 80 1018.2
20260502100115 31 0 0.0 0.0 0.00 0.00 0.00 78 1018.2
20260502090103 32 0 0.0 0.0 0.00 0.00 0.00 77 1018.0
20260502070058 35 0 0.0 0.0 0.00 0.00 0.00 71 1018.5
20260502064606 35 0 0.0 2.0 0.00 0.00 0.00 72 1018.5
20260502063056 35 0 0.0 0.0 0.00 0.00 0.00 72 1018.6
20260502061558 35 0 0.0 1.0 0.00 0.00 0.00 72 1018.5
20260502060101 36 0 0.0 1.0 0.00 0.00 0.00 70 1018.4
20260502054555 36 0 0.0 1.0 0.00 0.00 0.00 69 1018.4
20260502053057 37 0 0.0 2.0 0.00 0.00 0.00 68 1018.4
20260502051634 38 0 0.0 0.0 0.00 0.00 0.00 66 1018.5
20260502050100 38 0 0.0 0.0 0.00 0.00 0.00 66 1018.5
20260502044606 39 0 0.0 2.0 0.00 0.00 0.00 65 1018.5
20260502043053 40 0 0.0 2.0 0.00 0.00 0.00 61 1018.6
20260502041553 41 0 0.0 3.0 0.00 0.00 0.00 60 1018.6
20260502040049 40 281 0.0 1.0 0.00 0.00 0.00 62 1018.6
20260502034552 41 281 0.0 3.0 0.00 0.00 0.00 61 1018.6
20260502033054 42 43 0.0 1.0 0.00 0.00 0.00 59 1018.6
20260502031607 43 0 0.0 1.0 0.00 0.00 0.00 57 1018.5
20260502030052 44 0 0.0 0.0 0.00 0.00 0.00 54 1018.6
20260502024555 45 0 0.0 2.0 0.00 0.00 0.00 56 1018.4
20260502023055 45 0 0.0 1.0 0.00 0.00 0.00 49 1018.4
20260502021556 44 37 1.0 2.0 0.00 0.00 0.00 51 1018.3
20260502020105 46 0 0.0 1.0 0.00 0.00 0.00 49 1018.2
20260502014548 47 0 0.0 1.0 0.00 0.00 0.00 47 1018.2
20260502013054 48 0 0.0 2.0 0.00 0.00 0.00 42 1018.1
20260502011553 49 0 0.0 3.0 0.00 0.00 0.00 41 1018.0
20260502010055 51 299 0.0 2.0 0.00 0.00 0.00 38 1018.0
20260502004549 52 275 1.0 3.0 0.00 0.00 0.00 35 1017.9
20260502003051 52 0 1.0 3.0 0.00 0.00 0.00 35 1017.9
20260502001552 52 315 1.0 4.0 0.00 0.00 0.00 35 1018.0
20260502000047 52 269 2.0 8.0 0.00 0.00 0.00 35 1017.9
20260501234559 52 0 0.0 4.0 0.00 0.00 0.00 34 1018.0
20260501233101 53 27 3.0 8.0 0.00 0.00 0.00 36 1017.9
20260501231605 52 0 1.0 5.0 0.00 0.00 0.00 36 1018.0
20260501230058 53 323 3.0 8.0 0.00 0.00 0.00 33 1018.0
20260501224554 53 360 1.0 8.0 0.00 0.00 0.00 36 1018.1
20260501223100 53 294 2.0 8.0 0.00 0.00 0.00 33 1018.1
20260501221550 53 336 3.0 8.0 0.00 0.00 0.00 33 1018.2
20260501220052 54 0 1.0 11.0 0.00 0.00 0.00 33 1018.1
20260501214600 54 296 4.0 9.0 0.00 0.00 0.00 34 1018.3
20260501213051 53 283 5.0 9.0 0.00 0.00 0.00 33 1018.2
20260501211557 53 259 1.0 8.0 0.00 0.00 0.00 34 1018.3
20260501204554 53 213 3.0 10.0 0.00 0.00 0.00 34 1018.5
20260501203051 53 277 2.0 9.0 0.00 0.00 0.00 36 1018.5
20260501201553 54 270 4.0 12.0 0.00 0.00 0.00 36 1018.7
20260501200053 53 355 3.0 10.0 0.00 0.00 0.00 37 1018.8
20260501194559 54 265 4.0 12.0 0.00 0.00 0.00 34 1018.8
20260501193052 51 333 2.0 9.0 0.00 0.00 0.00 38 1018.9
20260501191554 52 149 1.0 8.0 0.00 0.00 0.00 38 1019.0
20260501190114 50 306 2.0 10.0 0.00 0.00 0.00 40 1019.1
20260501184552 51 339 5.0 11.0 0.00 0.00 0.00 45 1019.1